Simultaneous Nadir Overpasses (SNOs) Predictions

Prediction of SNOs between GOES-14 and NOAA-20 Satellite Orbit:

Table of predicted SNOs for the next 14.0 days since TLE Epoch: 6/26/2021
Index Date Time (GOES-14) GOES-14 Lat,Lon NOAA-20 Lat,Lon Distance(km) Time Diff (sec)
1 06/26/2021 20:11:27 0.06,-104.33 0.71,-101.47 325.71 80
2 06/28/2021 08:30:35 -0.10,-104.09 0.51,-106.74 301.75 80
3 06/29/2021 08:14:30 -0.08,-104.09 -0.51,-102.21 215.21 80
4 06/30/2021 20:33:48 0.11,-104.34 -0.63,-107.52 363.76 80
5 07/01/2021 20:17:43 0.09,-104.34 0.39,-102.99 153.48 80
6 07/03/2021 08:36:50 -0.13,-104.11 0.83,-108.26 473.31 80
7 07/04/2021 08:20:46 -0.12,-104.11 -0.19,-103.73 43.77 80
8 07/06/2021 20:21:19 0.13,-104.36 0.08,-104.52 18.29 80
9 07/07/2021 20:05:14 0.12,-104.37 1.10, -99.99 498.85 80
10 07/09/2021 08:24:22 -0.16,-104.13 0.12,-105.25 128.24 80
